#timestamp,LO_Frequency,Hit,StdDev 
1598456715.9,286047029.2,P
1598456735.7,286047028.6,P
1598456755.5,286047031.6,P
1598456775.4,286047030.3,Y
1598456795.2,286047000.6,P
1598456815.0,286047000.8,N
1598456815.9,286047000.8,N
1598456835.8,286046998.2,N
1598456855.6,286047000.3,N
1598456875.5,286047000.4,N
1598456895.3,286047002.0,N
1598456915.1,286047000.1,N
1598456935.9,286047002.2,N
1598456955.7,286047002.6,N
1598456975.5,286047001.5,N
1598456995.4,286047001.5,N
1598457015.2,286047001.5,N
1598457035.1,286047001.6,N
1598457036.0,286047001.6,N
1598457055.8,286047001.4,N
1598457075.6,286047001.8,N
1598457095.5,286047004.0,N
1598457115.3,286047001.6,N
1598457135.1,286047001.8,N
1598457155.9,286047001.8,N
1598457175.7,286047004.4,N
1598457195.6,286047004.0,N
1598457215.4,286047003.4,N
1598457235.2,286047004.2,N
1598457255.1,286047003.7,N
1598457256.0,286047003.7,N
1598457275.8,286047002.9,N
1598457295.6,286047005.8,N
1598457315.5,286047003.3,N
1598457335.3,286047002.9,N
1598457355.2,286047005.7,Y
1598457375.9,286047001.7,P
1598457395.7,286047001.5,P
1598457415.6,286047002.0,P
1598457435.4,286047001.5,Y
1598457455.2,286047000.1,P
1598457475.1,286047000.1,N
1598457476.0,286047000.1,N
1598457495.8,286046999.8,N
1598457515.7,286046999.7,N
1598457535.5,286047002.6,Y
1598457555.3,286047002.3,P
1598457575.2,286046999.7,N
1598457595.0,286047001.6,N
1598457595.9,286047001.6,N
